Time,TemperatureF,DewpointF,PressureIn,WindDirection,WindDirectionDegrees,WindSpeedMPH,WindSpeedGustMPH,Humidity,HourlyPrecipIn,Conditions,Clouds,dailyrainin,SoftwareType,DateUTC
2013-05-07 00:00:00,55.6,52.4,30.01,NE,45,0.0,0.0,89,0.04,RA,,0.00,WeatherDisplay:10.37,2013-05-07 04:00:00,
2013-05-07 00:01:00,55.6,52.4,30.01,NE,45,0.0,0.0,89,0.04,RA,,0.00,WeatherDisplay:10.37,2013-05-07 04:01:00,
2013-05-07 00:02:00,55.6,52.4,30.01,NE,45,0.0,0.0,89,0.04,RA,,0.00,WeatherDisplay:10.37,2013-05-07 04:02:00,
2013-05-07 00:03:00,55.6,52.4,30.01,NE,45,0.0,0.0,89,0.04,RA,,0.00,WeatherDisplay:10.37,2013-05-07 04:03:00,
2013-05-07 00:04:00,55.6,52.4,30.01,NE,45,0.0,0.0,89,0.04,RA,,0.00,WeatherDisplay:10.37,2013-05-07 04:04:00,
2013-05-07 00:05:00,55.6,52.4,30.01,North,0,3.6,3.6,89,0.04,RA,,0.00,WeatherDisplay:10.37,2013-05-07 04:05:00,
2013-05-07 00:10:00,55.6,52.7,30.01,NNE,22,2.3,2.3,90,0.04,CLR,,0.00,WeatherDisplay:10.37,2013-05-07 04:10:00,
2013-05-07 00:15:00,55.6,52.4,30.01,North,0,3.5,3.5,89,0.02,CLR,,0.00,WeatherDisplay:10.37,2013-05-07 04:15:00,
2013-05-07 00:20:00,55.6,52.7,30.01,NNE,22,6.9,6.9,90,0.02,CLR,,0.00,WeatherDisplay:10.37,2013-05-07 04:20:00,
2013-05-07 00:25:00,55.6,52.7,30.00,NNE,22,3.5,3.5,90,0.02,RA,,0.02,WeatherDisplay:10.37,2013-05-07 04:25:00,
2013-05-07 00:30:00,55.6,52.7,30.01,NNE,22,2.3,2.5,90,0.02,RA,,0.02,WeatherDisplay:10.37,2013-05-07 04:30:00,
2013-05-07 00:35:00,55.6,52.7,30.01,NNE,22,3.5,3.5,90,0.02,CLR,,0.02,WeatherDisplay:10.37,2013-05-07 04:35:00,
2013-05-07 00:40:00,55.6,52.7,30.01,NNE,22,0.4,0.4,90,0.02,CLR,,0.02,WeatherDisplay:10.37,2013-05-07 04:40:00,
2013-05-07 00:45:00,55.6,52.7,30.01,NNE,22,0.0,0.0,90,0.02,CLR,,0.02,WeatherDisplay:10.37,2013-05-07 04:45:00,
2013-05-07 00:50:00,55.6,52.7,30.01,NNE,22,0.0,0.0,90,0.02,CLR,,0.02,WeatherDisplay:10.37,2013-05-07 04:50:00,
2013-05-07 00:55:00,55.6,52.7,30.01,NNE,22,0.0,0.0,90,0.04,RA,,0.04,WeatherDisplay:10.37,2013-05-07 04:55:00,
2013-05-07 01:00:00,55.6,52.7,30.00,NNE,22,0.0,0.0,90,0.04,RA,,0.04,WeatherDisplay:10.37,2013-05-07 05:00:00,
2013-05-07 01:05:00,55.6,52.7,30.01,NNE,22,0.0,0.0,90,0.04,,,0.04,WeatherDisplay:10.37,2013-05-07 05:05:00,
2013-05-07 01:10:00,55.6,52.7,30.00,NE,45,0.0,0.0,90,0.04,CLR,,0.04,WeatherDisplay:10.37,2013-05-07 05:10:00,
2013-05-07 01:15:00,55.6,52.7,30.00,NE,45,0.0,0.0,90,0.04,CLR,,0.04,WeatherDisplay:10.37,2013-05-07 05:15:00,
2013-05-07 01:20:00,55.6,52.7,30.00,NE,45,0.0,0.0,90,0.04,CLR,,0.04,WeatherDisplay:10.37,2013-05-07 05:20:00,
2013-05-07 01:25:00,55.6,52.7,29.99,NE,45,0.0,0.0,90,0.02,CLR,,0.04,WeatherDisplay:10.37,2013-05-07 05:25:00,
2013-05-07 01:30:00,55.6,52.7,29.99,NNE,22,0.0,0.0,90,0.02,CLR,,0.04,WeatherDisplay:10.37,2013-05-07 05:30:00,
2013-05-07 01:35:00,55.6,52.7,29.99,NNE,22,0.0,0.0,90,0.02,CLR,,0.04,WeatherDisplay:10.37,2013-05-07 05:35:00,
2013-05-07 01:40:00,55.6,52.7,29.99,NE,45,0.0,0.0,90,0.04,RA,,0.06,WeatherDisplay:10.37,2013-05-07 05:40:00,
2013-05-07 01:45:00,55.6,52.7,29.99,NNE,22,0.0,0.0,90,0.04,RA,,0.06,WeatherDisplay:10.37,2013-05-07 05:45:00,
2013-05-07 01:50:00,55.6,52.7,29.99,NNE,22,0.0,0.0,90,0.04,CLR,,0.06,WeatherDisplay:10.37,2013-05-07 05:50:00,
2013-05-07 01:55:00,55.6,52.7,29.99,NNE,22,0.0,0.0,90,0.02,CLR,,0.06,WeatherDisplay:10.37,2013-05-07 05:55:00,
2013-05-07 02:00:00,55.8,52.9,29.99,NNE,22,1.1,1.1,90,0.02,CLR,,0.06,WeatherDisplay:10.37,2013-05-07 06:00:00,
2013-05-07 02:05:00,55.8,52.9,29.98,NNE,22,3.8,3.8,90,0.02,CLR,,0.06,WeatherDisplay:10.37,2013-05-07 06:05:00,
2013-05-07 02:10:00,55.8,52.9,29.98,NNE,22,4.0,4.0,90,0.02,CLR,,0.06,WeatherDisplay:10.37,2013-05-07 06:10:00,
2013-05-07 02:15:00,55.6,52.7,29.98,NNE,22,4.6,4.7,90,0.02,CLR,,0.06,WeatherDisplay:10.37,2013-05-07 06:15:00,
2013-05-07 02:20:00,55.8,52.9,29.98,NNE,22,0.0,0.0,90,0.02,CLR,,0.06,WeatherDisplay:10.37,2013-05-07 06:20:00,
2013-05-07 02:25:00,55.8,52.9,29.98,NNE,22,3.5,3.5,90,0.02,CLR,,0.06,WeatherDisplay:10.37,2013-05-07 06:25:00,
2013-05-07 02:30:00,55.6,52.7,29.98,NNE,22,3.4,3.4,90,0.02,CLR,,0.06,WeatherDisplay:10.37,2013-05-07 06:30:00,
2013-05-07 02:35:00,55.8,52.9,29.98,NNE,22,0.0,0.0,90,0.02,CLR,,0.06,WeatherDisplay:10.37,2013-05-07 06:35:00,
2013-05-07 02:40:00,55.8,52.9,29.98,NNE,22,0.0,0.0,90,0.00,CLR,,0.06,WeatherDisplay:10.37,2013-05-07 06:40:00,
2013-05-07 02:45:00,55.6,52.7,29.98,NNE,22,0.0,0.0,90,0.02,RA,,0.08,WeatherDisplay:10.37,2013-05-07 06:45:00,
2013-05-07 02:50:00,55.8,52.9,29.98,NNE,22,1.1,1.1,90,0.04,RA,,0.10,WeatherDisplay:10.37,2013-05-07 06:50:00,
2013-05-07 02:55:00,55.6,52.7,29.98,NNE,22,0.0,0.0,90,0.04,RA,,0.10,WeatherDisplay:10.37,2013-05-07 06:55:00,
2013-05-07 03:00:00,55.6,52.7,29.98,NNE,22,0.0,0.0,90,0.04,CLR,,0.10,WeatherDisplay:10.37,2013-05-07 07:00:00,
2013-05-07 03:05:00,55.6,52.7,29.97,NNE,22,0.0,0.0,90,0.04,CLR,,0.10,WeatherDisplay:10.37,2013-05-07 07:05:00,
2013-05-07 03:10:00,55.8,52.9,29.98,NNE,22,0.0,0.0,90,0.04,CLR,,0.10,WeatherDisplay:10.37,2013-05-07 07:10:00,
2013-05-07 03:15:00,55.8,52.9,29.97,NNE,22,1.1,1.6,90,0.08,RA,,0.14,WeatherDisplay:10.37,2013-05-07 07:15:00,
2013-05-07 03:20:00,55.8,52.9,29.98,NNE,22,2.3,2.3,90,0.08,RA,,0.14,WeatherDisplay:10.37,2013-05-07 07:20:00,
2013-05-07 03:25:00,55.8,52.9,29.97,NE,45,3.6,3.6,90,0.08,CLR,,0.14,WeatherDisplay:10.37,2013-05-07 07:25:00,
2013-05-07 03:30:00,55.8,52.9,29.97,NE,45,2.3,2.3,90,0.08,CLR,,0.14,WeatherDisplay:10.37,2013-05-07 07:30:00,
2013-05-07 03:35:00,55.8,52.9,29.97,NNE,22,0.0,0.0,90,0.08,CLR,,0.14,WeatherDisplay:10.37,2013-05-07 07:35:00,
2013-05-07 03:40:00,55.6,52.7,29.97,NNE,22,3.5,3.5,90,0.08,CLR,,0.14,WeatherDisplay:10.37,2013-05-07 07:40:00,
2013-05-07 03:45:00,55.6,52.7,29.97,North,0,0.0,0.0,90,0.06,CLR,,0.14,WeatherDisplay:10.37,2013-05-07 07:45:00,
2013-05-07 03:50:00,55.6,52.7,29.97,NNE,22,3.5,3.5,90,0.04,CLR,,0.14,WeatherDisplay:10.37,2013-05-07 07:50:00,
2013-05-07 03:55:00,55.8,52.9,29.97,NNE,22,4.6,4.6,90,0.04,CLR,,0.14,WeatherDisplay:10.37,2013-05-07 07:55:00,
2013-05-07 04:00:00,55.8,52.9,29.97,NE,45,3.5,3.5,90,0.06,RA,,0.16,WeatherDisplay:10.37,2013-05-07 08:00:00,
2013-05-07 04:05:00,55.8,52.9,29.97,NNE,22,3.6,3.6,90,0.08,RA,,0.18,WeatherDisplay:10.37,2013-05-07 08:05:00,
2013-05-07 04:10:00,55.8,52.9,29.97,NNE,22,2.3,2.3,90,0.08,RA,,0.18,WeatherDisplay:10.37,2013-05-07 08:10:00,
2013-05-07 04:15:00,55.8,52.9,29.97,NNE,22,2.3,2.3,90,0.04,,,0.18,WeatherDisplay:10.37,2013-05-07 08:15:00,
2013-05-07 04:20:00,55.8,52.9,29.97,NNE,22,1.1,1.1,90,0.04,CLR,,0.18,WeatherDisplay:10.37,2013-05-07 08:20:00,
2013-05-07 04:25:00,55.8,52.9,29.97,NNE,22,3.5,3.5,90,0.04,CLR,,0.18,WeatherDisplay:10.37,2013-05-07 08:25:00,
2013-05-07 04:30:00,55.8,52.9,29.97,NNE,22,0.0,0.0,90,0.04,CLR,,0.18,WeatherDisplay:10.37,2013-05-07 08:30:00,
2013-05-07 04:35:00,55.8,52.9,29.97,NNE,22,4.0,4.0,90,0.04,CLR,,0.18,WeatherDisplay:10.37,2013-05-07 08:35:00,
2013-05-07 04:40:00,55.8,52.9,29.97,NNE,22,2.3,2.3,90,0.04,CLR,,0.18,WeatherDisplay:10.37,2013-05-07 08:40:00,
2013-05-07 04:45:00,55.8,52.9,29.97,NNE,22,1.6,1.6,90,0.04,CLR,,0.18,WeatherDisplay:10.37,2013-05-07 08:45:00,
2013-05-07 04:50:00,55.8,52.9,29.97,NNE,22,0.0,0.0,90,0.06,RA,,0.20,WeatherDisplay:10.37,2013-05-07 08:50:00,
2013-05-07 04:55:00,55.8,52.9,29.97,NNE,22,2.3,2.3,90,0.06,RA,,0.20,WeatherDisplay:10.37,2013-05-07 08:55:00,
2013-05-07 05:00:00,55.8,52.9,29.97,NE,45,2.3,2.7,90,0.04,CLR,,0.20,WeatherDisplay:10.37,2013-05-07 09:00:00,
2013-05-07 05:05:00,55.8,52.9,29.96,NNE,22,3.8,3.8,90,0.02,CLR,,0.20,WeatherDisplay:10.37,2013-05-07 09:05:00,
2013-05-07 05:10:00,55.6,52.7,29.96,NNE,22,3.5,3.5,90,0.02,CLR,,0.20,WeatherDisplay:10.37,2013-05-07 09:10:00,
2013-05-07 05:15:00,55.6,52.7,29.96,NE,45,2.3,2.3,90,0.02,CLR,,0.20,WeatherDisplay:10.37,2013-05-07 09:15:00,
2013-05-07 05:20:00,55.6,52.7,29.97,NNE,22,2.7,2.7,90,0.02,CLR,,0.20,WeatherDisplay:10.37,2013-05-07 09:20:00,
2013-05-07 05:25:00,55.6,52.7,29.96,NNE,22,0.0,0.0,90,0.02,CLR,,0.20,WeatherDisplay:10.37,2013-05-07 09:25:00,
2013-05-07 05:30:00,55.6,52.7,29.96,NNE,22,1.1,1.6,90,0.04,RA,,0.22,WeatherDisplay:10.37,2013-05-07 09:30:00,
2013-05-07 05:35:00,55.6,52.7,29.97,NE,45,2.3,2.3,90,0.04,RA,,0.22,WeatherDisplay:10.37,2013-05-07 09:35:00,
2013-05-07 05:40:00,55.6,52.7,29.97,NNE,22,4.6,4.6,90,0.06,RA,,0.24,WeatherDisplay:10.37,2013-05-07 09:40:00,
2013-05-07 05:45:00,55.6,52.7,29.97,NNE,22,0.0,0.0,90,0.06,RA,,0.24,WeatherDisplay:10.37,2013-05-07 09:45:00,
2013-05-07 05:50:00,55.6,52.7,29.97,NNE,22,3.5,3.8,90,0.04,CLR,,0.24,WeatherDisplay:10.37,2013-05-07 09:50:00,
2013-05-07 05:55:00,55.6,52.7,29.98,NNE,22,2.3,2.3,90,0.04,CLR,,0.24,WeatherDisplay:10.37,2013-05-07 09:55:00,
2013-05-07 06:00:00,55.6,52.7,29.98,NNE,22,0.0,2.3,90,0.04,CLR,,0.24,WeatherDisplay:10.37,2013-05-07 10:00:00,
2013-05-07 06:05:00,55.6,52.7,29.98,NNE,22,1.1,1.3,90,0.06,RA,,0.26,WeatherDisplay:10.37,2013-05-07 10:05:00,
2013-05-07 06:10:00,55.6,52.7,29.98,NNE,22,0.0,0.0,90,0.06,RA,,0.26,WeatherDisplay:10.37,2013-05-07 10:10:00,
2013-05-07 06:15:00,55.6,52.7,29.98,NNE,22,0.0,0.0,90,0.08,RA,,0.28,WeatherDisplay:10.37,2013-05-07 10:15:00,
2013-05-07 06:20:00,55.6,52.7,29.98,NNE,22,4.0,0.0,90,0.08,RA,,0.28,WeatherDisplay:10.37,2013-05-07 10:20:00,
2013-05-07 06:25:00,55.6,52.7,29.97,NNE,22,4.6,4.6,90,0.10,RA,,0.30,WeatherDisplay:10.37,2013-05-07 10:25:00,
2013-05-07 06:30:00,55.6,52.7,29.98,NNE,22,3.5,4.0,90,0.08,RA,,0.30,WeatherDisplay:10.37,2013-05-07 10:30:00,
2013-05-07 06:35:00,55.6,52.7,29.98,NE,45,3.5,3.5,90,0.08,CLR,,0.30,WeatherDisplay:10.37,2013-05-07 10:35:00,
2013-05-07 06:40:00,55.6,52.7,29.98,NE,45,1.3,1.3,90,0.08,RA,,0.32,WeatherDisplay:10.37,2013-05-07 10:40:00,
2013-05-07 06:45:00,55.6,52.7,29.98,NE,45,3.5,3.5,90,0.08,RA,,0.32,WeatherDisplay:10.37,2013-05-07 10:45:00,
2013-05-07 06:50:00,55.6,52.7,29.98,NNE,22,4.6,4.9,90,0.08,CLR,,0.32,WeatherDisplay:10.37,2013-05-07 10:50:00,
2013-05-07 06:55:00,55.6,52.7,29.98,NNE,22,2.3,2.3,90,0.08,CLR,,0.32,WeatherDisplay:10.37,2013-05-07 10:55:00,
2013-05-07 07:00:00,55.6,52.7,29.98,North,0,5.8,5.8,90,0.08,CLR,,0.32,WeatherDisplay:10.37,2013-05-07 11:00:00,
2013-05-07 07:05:00,55.6,52.7,29.98,NNE,22,3.5,3.5,90,0.06,CLR,,0.32,WeatherDisplay:10.37,2013-05-07 11:05:00,
2013-05-07 07:10:00,55.6,52.7,29.98,NNE,22,3.5,3.5,90,0.06,CLR,,0.32,WeatherDisplay:10.37,2013-05-07 11:10:00,
2013-05-07 07:15:00,55.6,52.7,29.98,NNE,22,2.5,2.6,90,0.04,CLR,,0.32,WeatherDisplay:10.37,2013-05-07 11:15:00,
2013-05-07 07:20:00,55.6,52.7,29.98,NNE,22,2.3,2.3,90,0.04,CLR,,0.32,WeatherDisplay:10.37,2013-05-07 11:20:00,
2013-05-07 07:25:00,55.6,52.7,29.98,NNE,22,5.8,5.8,90,0.02,CLR,,0.32,WeatherDisplay:10.37,2013-05-07 11:25:00,
2013-05-07 07:30:00,55.6,52.7,29.98,NNE,22,5.8,5.8,90,0.02,CLR,,0.32,WeatherDisplay:10.37,2013-05-07 11:30:00,
2013-05-07 07:35:00,55.6,52.7,29.98,NE,45,1.1,1.6,90,0.02,CLR,,0.32,WeatherDisplay:10.37,2013-05-07 11:35:00,
2013-05-07 07:40:00,55.6,52.7,29.98,NNE,22,2.3,2.3,90,0.00,CLR,,0.32,WeatherDisplay:10.37,2013-05-07 11:40:00,
2013-05-07 07:45:00,55.8,52.9,29.98,NNE,22,3.5,3.5,90,0.00,CLR,,0.32,WeatherDisplay:10.37,2013-05-07 11:45:00,
2013-05-07 07:50:00,55.8,52.9,29.98,NNE,22,0.0,0.0,90,0.00,CLR,,0.32,WeatherDisplay:10.37,2013-05-07 11:50:00,
2013-05-07 07:55:00,55.8,52.9,29.98,NE,45,4.6,4.6,90,0.00,CLR,,0.32,WeatherDisplay:10.37,2013-05-07 11:55:00,
2013-05-07 08:00:00,55.8,53.2,29.98,NNE,22,3.5,3.5,91,0.00,CLR,,0.32,WeatherDisplay:10.37,2013-05-07 12:00:00,
2013-05-07 08:05:00,55.8,52.9,29.98,NNE,22,3.5,3.5,90,0.00,CLR,,0.32,WeatherDisplay:10.37,2013-05-07 12:05:00,
2013-05-07 08:10:00,55.8,53.2,29.99,NNE,22,3.5,3.5,91,0.00,CLR,,0.32,WeatherDisplay:10.37,2013-05-07 12:10:00,
2013-05-07 08:15:00,55.8,53.2,29.98,NNE,22,5.8,5.8,91,0.02,RA,,0.34,WeatherDisplay:10.37,2013-05-07 12:15:00,
2013-05-07 08:20:00,55.9,53.4,29.98,NNE,22,1.1,1.9,91,0.02,RA,,0.34,WeatherDisplay:10.37,2013-05-07 12:20:00,
2013-05-07 08:25:00,55.8,53.2,29.98,NNE,22,6.9,6.9,91,0.04,RA,,0.36,WeatherDisplay:10.37,2013-05-07 12:25:00,
2013-05-07 08:30:00,55.8,53.2,29.99,NNE,22,3.5,3.5,91,0.06,RA,,0.38,WeatherDisplay:10.37,2013-05-07 12:30:00,
2013-05-07 08:35:00,55.8,53.2,29.99,NNE,22,2.5,2.5,91,0.06,RA,,0.38,WeatherDisplay:10.37,2013-05-07 12:35:00,
2013-05-07 08:40:00,55.8,53.2,29.99,NNE,22,0.0,0.0,91,0.10,RA,,0.42,WeatherDisplay:10.37,2013-05-07 12:40:00,
2013-05-07 08:45:00,55.9,53.4,29.99,NNE,22,3.5,3.5,91,0.10,RA,,0.42,WeatherDisplay:10.37,2013-05-07 12:45:00,
2013-05-07 08:50:00,55.9,53.4,29.99,NE,45,2.3,0.0,91,0.12,RA,,0.44,WeatherDisplay:10.37,2013-05-07 12:50:00,
2013-05-07 08:55:00,56.1,53.5,29.99,NE,45,4.6,4.6,91,0.12,RA,,0.44,WeatherDisplay:10.37,2013-05-07 12:55:00,
2013-05-07 09:00:00,56.1,53.5,29.99,NE,45,4.6,4.6,91,0.14,RA,,0.46,WeatherDisplay:10.37,2013-05-07 13:00:00,
2013-05-07 09:05:00,56.1,53.5,29.99,NE,45,6.9,6.9,91,0.14,RA,,0.46,WeatherDisplay:10.37,2013-05-07 13:05:00,
2013-05-07 09:10:00,56.3,53.7,29.99,NE,45,1.1,1.8,91,0.14,CLR,,0.46,WeatherDisplay:10.37,2013-05-07 13:10:00,
2013-05-07 09:15:00,56.3,53.7,29.98,NNE,22,8.1,8.1,91,0.12,CLR,,0.46,WeatherDisplay:10.37,2013-05-07 13:15:00,
2013-05-07 09:20:00,56.3,53.7,29.98,NNE,22,2.7,2.8,91,0.12,CLR,,0.46,WeatherDisplay:10.37,2013-05-07 13:20:00,
2013-05-07 09:25:00,56.3,53.7,29.98,NNE,22,3.5,3.6,91,0.10,CLR,,0.46,WeatherDisplay:10.37,2013-05-07 13:25:00,
2013-05-07 09:30:00,56.3,53.7,29.98,NNE,22,4.6,4.6,91,0.08,CLR,,0.46,WeatherDisplay:10.37,2013-05-07 13:30:00,
2013-05-07 09:35:00,56.3,53.7,29.98,NNE,22,6.9,7.2,91,0.08,CLR,,0.46,WeatherDisplay:10.37,2013-05-07 13:35:00,
2013-05-07 09:40:00,56.3,53.7,29.98,NE,45,3.8,3.8,91,0.04,CLR,,0.46,WeatherDisplay:10.37,2013-05-07 13:40:00,
2013-05-07 09:45:00,56.3,53.7,29.99,NNE,22,5.8,5.8,91,0.06,RA,,0.48,WeatherDisplay:10.37,2013-05-07 13:45:00,
2013-05-07 09:50:00,56.3,53.7,29.99,NE,45,2.3,2.3,91,0.04,RA,,0.48,WeatherDisplay:10.37,2013-05-07 13:50:00,
2013-05-07 09:55:00,56.3,53.7,29.99,NNE,22,6.5,6.5,91,0.04,CLR,,0.48,WeatherDisplay:10.37,2013-05-07 13:55:00,
2013-05-07 10:00:00,56.1,53.5,29.99,NNE,22,6.9,6.9,91,0.04,RA,,0.51,WeatherDisplay:10.37,2013-05-07 14:00:00,
2013-05-07 10:05:00,56.1,53.5,29.99,NNE,22,4.6,4.9,91,0.10,RA,,0.57,WeatherDisplay:10.37,2013-05-07 14:05:00,
2013-05-07 10:10:00,56.1,53.5,29.99,NNE,22,2.3,2.5,91,0.12,RA,,0.59,WeatherDisplay:10.37,2013-05-07 14:10:00,
2013-05-07 10:15:00,56.3,53.7,29.99,ENE,68,5.8,5.8,91,0.12,RA,,0.61,WeatherDisplay:10.37,2013-05-07 14:15:00,
2013-05-07 10:20:00,56.3,53.7,29.99,NE,45,4.6,4.6,91,0.14,RA,,0.61,WeatherDisplay:10.37,2013-05-07 14:20:00,
2013-05-07 10:25:00,56.5,53.9,30.00,NE,45,2.3,2.3,91,0.14,RA,,0.61,WeatherDisplay:10.37,2013-05-07 14:25:00,
2013-05-07 10:30:00,56.5,53.9,30.00,NE,45,6.3,6.3,91,0.16,RA,,0.63,WeatherDisplay:10.37,2013-05-07 14:30:00,
2013-05-07 10:35:00,56.5,53.9,30.00,NNE,22,3.6,3.6,91,0.16,RA,,0.63,WeatherDisplay:10.37,2013-05-07 14:35:00,
2013-05-07 10:40:00,56.5,53.9,29.99,NNE,22,2.3,8.9,91,0.16,,,0.63,WeatherDisplay:10.37,2013-05-07 14:40:00,
2013-05-07 10:45:00,56.8,54.2,29.99,NE,45,5.8,5.8,91,0.14,CLR,,0.63,WeatherDisplay:10.37,2013-05-07 14:45:00,
2013-05-07 10:50:00,57.0,54.4,29.99,NNE,22,5.8,5.8,91,0.14,CLR,,0.63,WeatherDisplay:10.37,2013-05-07 14:50:00,
2013-05-07 10:55:00,57.4,54.8,29.99,ENE,68,6.9,7.0,91,0.14,CLR,,0.63,WeatherDisplay:10.37,2013-05-07 14:55:00,
2013-05-07 11:00:00,57.6,55.0,29.99,NNE,22,3.5,3.6,91,0.14,RA,,0.65,WeatherDisplay:10.37,2013-05-07 15:00:00,
2013-05-07 11:05:00,57.9,55.3,29.99,NE,45,2.3,2.3,91,0.08,RA,,0.65,WeatherDisplay:10.37,2013-05-07 15:05:00,
2013-05-07 11:10:00,57.9,55.3,29.99,NNE,22,10.4,10.7,91,0.06,CLR,,0.65,WeatherDisplay:10.37,2013-05-07 15:10:00,
2013-05-07 11:15:00,58.1,55.5,30.00,NNE,22,5.8,5.8,91,0.06,CLR,,0.65,WeatherDisplay:10.37,2013-05-07 15:15:00,
2013-05-07 11:20:00,58.1,55.5,29.99,NE,45,4.6,4.6,91,0.04,CLR,,0.65,WeatherDisplay:10.37,2013-05-07 15:20:00,
2013-05-07 11:25:00,57.9,55.3,29.99,NE,45,8.1,8.1,91,0.04,CLR,,0.65,WeatherDisplay:10.37,2013-05-07 15:25:00,
2013-05-07 11:30:00,57.7,55.1,29.99,NNE,22,6.9,6.9,91,0.02,CLR,,0.65,WeatherDisplay:10.37,2013-05-07 15:30:00,
2013-05-07 11:35:00,57.7,55.1,29.99,NE,45,6.9,6.9,91,0.02,CLR,,0.65,WeatherDisplay:10.37,2013-05-07 15:35:00,
2013-05-07 11:40:00,57.6,55.0,29.99,NNE,22,3.5,3.5,91,0.02,CLR,,0.65,WeatherDisplay:10.37,2013-05-07 15:40:00,
2013-05-07 11:45:00,57.6,55.0,29.98,NNE,22,12.7,12.7,91,0.02,CLR,,0.65,WeatherDisplay:10.37,2013-05-07 15:45:00,
2013-05-07 11:50:00,57.4,54.8,29.98,NNE,22,4.6,4.6,91,0.02,CLR,,0.65,WeatherDisplay:10.37,2013-05-07 15:50:00,
2013-05-07 11:55:00,57.6,55.0,29.98,NNE,22,5.8,6.0,91,0.02,CLR,,0.65,WeatherDisplay:10.37,2013-05-07 15:55:00,
2013-05-07 12:00:00,57.7,55.1,29.98,NNE,22,0.0,0.4,91,0.02,RA,,0.67,WeatherDisplay:10.37,2013-05-07 16:00:00,
2013-05-07 12:05:00,57.7,55.1,29.98,NNE,22,6.9,6.9,91,0.02,RA,,0.67,WeatherDisplay:10.37,2013-05-07 16:05:00,
2013-05-07 12:10:00,57.7,55.1,29.98,NNE,22,4.6,4.6,91,0.02,CLR,,0.67,WeatherDisplay:10.37,2013-05-07 16:10:00,
2013-05-07 12:15:00,57.7,55.1,29.98,NNE,22,3.5,3.7,91,0.02,CLR,,0.67,WeatherDisplay:10.37,2013-05-07 16:15:00,
2013-05-07 12:20:00,57.7,55.1,29.98,NE,45,3.5,3.5,91,0.02,CLR,,0.67,WeatherDisplay:10.37,2013-05-07 16:20:00,
2013-05-07 12:25:00,57.9,55.3,29.98,NNE,22,6.9,6.9,91,0.02,CLR,,0.67,WeatherDisplay:10.37,2013-05-07 16:25:00,
2013-05-07 12:30:00,57.9,55.3,29.98,NE,45,6.9,6.9,91,0.02,CLR,,0.67,WeatherDisplay:10.37,2013-05-07 16:30:00,
2013-05-07 12:35:00,58.3,55.7,29.98,NNE,22,1.3,1.3,91,0.04,RA,,0.69,WeatherDisplay:10.37,2013-05-07 16:35:00,
2013-05-07 12:40:00,58.6,56.0,29.97,NNE,22,9.2,9.2,91,0.04,RA,,0.69,WeatherDisplay:10.37,2013-05-07 16:40:00,
2013-05-07 12:45:00,58.8,56.2,29.97,NE,45,3.5,4.0,91,0.04,CLR,,0.69,WeatherDisplay:10.37,2013-05-07 16:45:00,
2013-05-07 12:50:00,59.5,56.9,29.97,NNE,22,8.1,8.1,91,0.04,CLR,,0.69,WeatherDisplay:10.37,2013-05-07 16:50:00,
2013-05-07 12:55:00,59.9,57.3,29.97,ENE,68,5.8,5.8,91,0.04,CLR,,0.69,WeatherDisplay:10.37,2013-05-07 16:55:00,
2013-05-07 13:00:00,60.1,57.4,29.97,NNE,22,8.1,8.1,91,0.02,CLR,,0.69,WeatherDisplay:10.37,2013-05-07 17:00:00,
2013-05-07 13:05:00,61.0,58.3,29.97,NNE,22,8.1,8.1,91,0.02,CLR,,0.69,WeatherDisplay:10.37,2013-05-07 17:05:00,
2013-05-07 13:10:00,61.0,58.3,29.97,NNE,22,9.2,9.6,91,0.02,CLR,,0.69,WeatherDisplay:10.37,2013-05-07 17:10:00,
2013-05-07 13:15:00,60.4,57.5,29.97,North,0,9.2,9.2,90,0.02,CLR,,0.69,WeatherDisplay:10.37,2013-05-07 17:15:00,
2013-05-07 13:20:00,59.9,57.0,29.97,NNE,22,4.6,4.6,90,0.02,CLR,,0.69,WeatherDisplay:10.37,2013-05-07 17:20:00,
2013-05-07 13:25:00,59.5,56.6,29.97,NE,45,8.1,8.1,90,0.02,CLR,,0.69,WeatherDisplay:10.37,2013-05-07 17:25:00,
2013-05-07 13:30:00,59.5,56.6,29.96,NE,45,3.5,3.5,90,0.02,CLR,,0.69,WeatherDisplay:10.37,2013-05-07 17:30:00,
2013-05-07 13:35:00,59.4,56.4,29.97,NE,45,5.8,5.8,90,0.02,RA,,0.71,WeatherDisplay:10.37,2013-05-07 17:35:00,
2013-05-07 13:40:00,59.0,56.1,29.97,NNE,22,5.8,6.5,90,0.02,RA,,0.71,WeatherDisplay:10.37,2013-05-07 17:40:00,
2013-05-07 13:45:00,58.8,55.9,29.96,NNE,22,3.8,3.8,90,0.02,CLR,,0.71,WeatherDisplay:10.37,2013-05-07 17:45:00,
2013-05-07 13:50:00,58.8,55.9,29.97,NE,45,8.1,8.1,90,0.02,CLR,,0.71,WeatherDisplay:10.37,2013-05-07 17:50:00,
2013-05-07 13:55:00,58.8,55.9,29.97,ENE,68,5.8,5.8,90,0.02,CLR,,0.71,WeatherDisplay:10.37,2013-05-07 17:55:00,
2013-05-07 14:00:00,58.8,55.9,29.97,NE,45,3.5,3.5,90,0.04,RA,,0.73,WeatherDisplay:10.37,2013-05-07 18:00:00,
2013-05-07 14:05:00,58.8,55.6,29.97,NE,45,5.8,5.8,89,0.04,RA,,0.73,WeatherDisplay:10.37,2013-05-07 18:05:00,
2013-05-07 14:10:00,58.8,55.6,29.97,NE,45,5.8,5.8,89,0.04,CLR,,0.73,WeatherDisplay:10.37,2013-05-07 18:10:00,
2013-05-07 14:15:00,58.8,55.6,29.97,NE,45,5.8,5.8,89,0.04,CLR,,0.73,WeatherDisplay:10.37,2013-05-07 18:15:00,
2013-05-07 14:20:00,58.8,55.6,29.97,ENE,68,6.9,6.9,89,0.04,CLR,,0.73,WeatherDisplay:10.37,2013-05-07 18:20:00,
2013-05-07 14:25:00,58.8,55.6,29.97,NE,45,3.5,3.5,89,0.04,CLR,,0.73,WeatherDisplay:10.37,2013-05-07 18:25:00,
2013-05-07 14:30:00,58.8,55.6,29.97,NE,45,4.6,4.6,89,0.04,CLR,,0.73,WeatherDisplay:10.37,2013-05-07 18:30:00,
2013-05-07 14:35:00,58.8,55.6,29.97,NE,45,6.9,6.9,89,0.02,CLR,,0.73,WeatherDisplay:10.37,2013-05-07 18:35:00,
2013-05-07 14:40:00,59.2,55.9,29.96,ENE,68,1.3,1.3,89,0.02,CLR,,0.73,WeatherDisplay:10.37,2013-05-07 18:40:00,
2013-05-07 14:45:00,59.4,55.8,29.96,NNE,22,3.5,3.5,88,0.02,CLR,,0.73,WeatherDisplay:10.37,2013-05-07 18:45:00,
2013-05-07 14:50:00,59.5,56.0,29.96,NE,45,6.9,6.9,88,0.02,CLR,,0.73,WeatherDisplay:10.37,2013-05-07 18:50:00,
2013-05-07 14:55:00,59.7,56.2,29.96,NNE,22,6.9,6.9,88,0.02,CLR,,0.73,WeatherDisplay:10.37,2013-05-07 18:55:00,
2013-05-07 15:00:00,59.7,55.8,29.96,NE,45,3.5,3.5,87,0.00,CLR,,0.73,WeatherDisplay:10.37,2013-05-07 19:00:00,
2013-05-07 15:05:00,60.1,56.2,29.96,NNE,22,8.1,8.3,87,0.00,CLR,,0.73,WeatherDisplay:10.37,2013-05-07 19:05:00,
2013-05-07 15:10:00,60.1,56.2,29.96,NNE,22,3.5,4.0,87,0.00,CLR,,0.73,WeatherDisplay:10.37,2013-05-07 19:10:00,
2013-05-07 15:15:00,59.9,56.0,29.96,NNE,22,5.8,5.8,87,0.00,CLR,,0.73,WeatherDisplay:10.37,2013-05-07 19:15:00,
2013-05-07 15:20:00,59.9,56.0,29.95,North,0,9.6,9.6,87,0.00,CLR,,0.73,WeatherDisplay:10.37,2013-05-07 19:20:00,
2013-05-07 15:25:00,60.1,56.2,29.95,NE,45,9.2,9.2,87,0.00,CLR,,0.73,WeatherDisplay:10.37,2013-05-07 19:25:00,
2013-05-07 15:30:00,60.1,56.2,29.96,North,0,3.5,3.8,87,0.00,CLR,,0.73,WeatherDisplay:10.37,2013-05-07 19:30:00,
2013-05-07 15:35:00,60.1,56.2,29.96,NNE,22,6.9,6.9,87,0.00,CLR,,0.73,WeatherDisplay:10.37,2013-05-07 19:35:00,
2013-05-07 15:40:00,60.1,56.2,29.96,NE,45,1.1,1.3,87,0.00,CLR,,0.73,WeatherDisplay:10.37,2013-05-07 19:40:00,
2013-05-07 15:45:00,59.9,56.0,29.96,NNE,22,6.9,6.9,87,0.00,CLR,,0.73,WeatherDisplay:10.37,2013-05-07 19:45:00,
2013-05-07 15:50:00,59.7,55.8,29.95,NNE,22,6.9,7.2,87,0.00,CLR,,0.73,WeatherDisplay:10.37,2013-05-07 19:50:00,
2013-05-07 15:55:00,59.7,55.8,29.95,NNE,22,1.3,1.3,87,0.00,CLR,,0.73,WeatherDisplay:10.37,2013-05-07 19:55:00,
2013-05-07 16:00:00,59.5,55.7,29.95,NE,45,1.1,1.1,87,0.00,CLR,,0.73,WeatherDisplay:10.37,2013-05-07 20:00:00,
2013-05-07 16:05:00,59.2,55.3,29.94,NNE,22,4.9,4.9,87,0.00,CLR,,0.75,WeatherDisplay:10.37,2013-05-07 20:05:00,
2013-05-07 16:10:00,58.8,55.0,29.94,NE,45,5.8,5.8,87,0.02,RA,,0.75,WeatherDisplay:10.37,2013-05-07 20:10:00,
2013-05-07 16:15:00,58.8,55.0,29.94,North,0,4.6,4.7,87,0.02,RA,,0.75,WeatherDisplay:10.37,2013-05-07 20:15:00,
2013-05-07 16:20:00,58.8,55.0,29.95,NE,45,6.9,6.9,87,0.02,CLR,,0.75,WeatherDisplay:10.37,2013-05-07 20:20:00,
2013-05-07 16:25:00,58.8,55.3,29.96,NE,45,3.8,3.8,88,0.02,CLR,,0.75,WeatherDisplay:10.37,2013-05-07 20:25:00,
2013-05-07 16:30:00,58.8,55.3,29.95,NE,45,3.5,3.5,88,0.02,CLR,,0.75,WeatherDisplay:10.37,2013-05-07 20:30:00,
2013-05-07 16:35:00,58.8,55.3,29.94,NNE,22,4.6,4.6,88,0.02,CLR,,0.75,WeatherDisplay:10.37,2013-05-07 20:35:00,
2013-05-07 16:40:00,58.8,55.3,29.93,North,0,2.3,2.3,88,0.04,RA,,0.77,WeatherDisplay:10.37,2013-05-07 20:40:00,
2013-05-07 16:45:00,58.8,55.3,29.93,NNE,22,6.9,6.9,88,0.04,RA,,0.77,WeatherDisplay:10.37,2013-05-07 20:45:00,
2013-05-07 16:50:00,58.8,55.3,29.93,NNE,22,6.9,7.0,88,0.04,,,0.77,WeatherDisplay:10.37,2013-05-07 20:50:00,
2013-05-07 16:55:00,58.6,55.1,29.93,NNE,22,5.8,6.1,88,0.04,CLR,,0.77,WeatherDisplay:10.37,2013-05-07 20:55:00,
2013-05-07 17:00:00,58.3,54.7,29.93,NNE,22,4.6,4.6,88,0.04,CLR,,0.77,WeatherDisplay:10.37,2013-05-07 21:00:00,
2013-05-07 17:05:00,58.3,54.7,29.94,NNE,22,4.6,4.6,88,0.04,CLR,,0.77,WeatherDisplay:10.37,2013-05-07 21:05:00,
2013-05-07 17:10:00,58.3,54.7,29.94,NNE,22,4.6,4.6,88,0.02,CLR,,0.77,WeatherDisplay:10.37,2013-05-07 21:10:00,
2013-05-07 17:15:00,58.1,54.9,29.93,NNE,22,2.7,2.7,89,0.04,RA,,0.79,WeatherDisplay:10.37,2013-05-07 21:15:00,
2013-05-07 17:20:00,57.9,54.7,29.93,NE,45,4.6,4.6,89,0.04,RA,,0.79,WeatherDisplay:10.37,2013-05-07 21:20:00,
2013-05-07 17:25:00,57.9,54.7,29.93,North,0,5.8,6.3,89,0.04,,,0.79,WeatherDisplay:10.37,2013-05-07 21:25:00,
2013-05-07 17:30:00,57.9,54.7,29.94,ENE,68,6.9,7.3,89,0.04,CLR,,0.79,WeatherDisplay:10.37,2013-05-07 21:30:00,
2013-05-07 17:35:00,57.7,54.5,29.93,NE,45,5.8,5.8,89,0.08,RA,,0.85,WeatherDisplay:10.37,2013-05-07 21:35:00,
2013-05-07 17:41:00,57.6,54.3,29.93,NNE,22,3.5,3.5,89,0.10,RA,,0.87,WeatherDisplay:10.37,2013-05-07 21:41:00,
2013-05-07 17:46:00,57.6,54.3,29.94,NE,45,5.8,5.8,89,0.10,RA,,0.87,WeatherDisplay:10.37,2013-05-07 21:46:00,
2013-05-07 17:51:00,57.4,54.2,29.95,NNE,22,3.5,3.8,89,0.16,RA,,0.99,WeatherDisplay:10.37,2013-05-07 21:51:00,
2013-05-07 17:56:00,57.2,54.0,29.95,SSW,202,0.0,0.0,89,0.26,RA,,1.03,WeatherDisplay:10.37,2013-05-07 21:56:00,
2013-05-07 18:01:00,57.0,53.8,29.95,SSW,202,0.0,0.0,89,0.28,RA,,1.05,WeatherDisplay:10.37,2013-05-07 22:01:00,
2013-05-07 18:06:00,57.0,53.8,29.94,North,0,4.6,4.6,89,0.30,RA,,1.07,WeatherDisplay:10.37,2013-05-07 22:06:00,
2013-05-07 18:11:00,56.8,53.6,29.94,ENE,68,2.3,2.3,89,0.33,RA,,1.09,WeatherDisplay:10.37,2013-05-07 22:11:00,
2013-05-07 18:16:00,56.5,53.3,29.94,ENE,68,0.0,0.0,89,0.31,RA,,1.09,WeatherDisplay:10.37,2013-05-07 22:16:00,
2013-05-07 18:21:00,55.9,52.7,29.94,ENE,68,0.0,0.0,89,0.33,RA,,1.12,WeatherDisplay:10.37,2013-05-07 22:21:00,
2013-05-07 18:26:00,55.6,52.4,29.93,ENE,68,0.0,0.0,89,0.37,RA,,1.16,WeatherDisplay:10.37,2013-05-07 22:26:00,
2013-05-07 18:31:00,55.2,52.0,29.93,ENE,68,0.0,0.0,89,0.37,RA,,1.18,WeatherDisplay:10.37,2013-05-07 22:31:00,
2013-05-07 18:36:00,55.0,51.9,29.93,ENE,68,0.0,0.0,89,0.33,RA,,1.18,WeatherDisplay:10.37,2013-05-07 22:36:00,
2013-05-07 18:41:00,54.7,51.5,29.93,ENE,68,0.0,0.0,89,0.31,,,1.18,WeatherDisplay:10.37,2013-05-07 22:41:00,
2013-05-07 18:46:00,54.7,51.5,29.93,ENE,68,0.0,0.0,89,0.31,CLR,,1.18,WeatherDisplay:10.37,2013-05-07 22:46:00,
2013-05-07 18:51:00,54.5,51.3,29.94,ENE,68,0.0,0.0,89,0.25,CLR,,1.18,WeatherDisplay:10.37,2013-05-07 22:51:00,
2013-05-07 18:56:00,54.3,51.1,29.95,ENE,68,0.0,0.0,89,0.14,CLR,,1.18,WeatherDisplay:10.37,2013-05-07 22:56:00,
2013-05-07 19:01:00,54.5,51.3,29.95,ENE,68,0.0,0.0,89,0.12,CLR,,1.18,WeatherDisplay:10.37,2013-05-07 23:01:00,
2013-05-07 19:06:00,54.3,51.1,29.94,ENE,68,0.0,0.0,89,0.12,RA,,1.20,WeatherDisplay:10.37,2013-05-07 23:06:00,
2013-05-07 19:11:00,54.3,51.1,29.94,ESE,112,0.0,0.0,89,0.10,RA,,1.22,WeatherDisplay:10.37,2013-05-07 23:11:00,
2013-05-07 19:16:00,54.3,51.1,29.94,ESE,112,0.0,0.0,89,0.12,RA,,1.22,WeatherDisplay:10.37,2013-05-07 23:16:00,
2013-05-07 19:21:00,54.1,51.0,29.95,ESE,112,0.0,0.0,89,0.10,RA,,1.22,WeatherDisplay:10.37,2013-05-07 23:21:00,
2013-05-07 19:26:00,54.1,51.0,29.94,SSW,202,0.0,0.0,89,0.08,RA,,1.24,WeatherDisplay:10.37,2013-05-07 23:26:00,
2013-05-07 19:31:00,53.8,50.6,29.94,WSW,248,2.3,2.3,89,0.06,RA,,1.24,WeatherDisplay:10.37,2013-05-07 23:31:00,
2013-05-07 19:36:00,53.8,50.6,29.94,SW,225,2.3,2.3,89,0.06,CLR,,1.24,WeatherDisplay:10.37,2013-05-07 23:36:00,
2013-05-07 19:41:00,53.8,50.6,29.95,SW,225,0.0,0.0,89,0.08,RA,,1.26,WeatherDisplay:10.37,2013-05-07 23:41:00,
2013-05-07 19:46:00,53.4,50.3,29.95,SW,225,0.0,0.0,89,0.08,RA,,1.26,WeatherDisplay:10.37,2013-05-07 23:46:00,
2013-05-07 19:51:00,53.4,50.3,29.94,SW,225,2.3,2.3,89,0.10,RA,,1.28,WeatherDisplay:10.37,2013-05-07 23:51:00,
2013-05-07 19:56:00,53.4,50.3,29.95,SW,225,0.0,0.0,89,0.10,RA,,1.28,WeatherDisplay:10.37,2013-05-07 23:56:00,
2013-05-07 20:01:00,53.2,50.1,29.96,SW,225,0.0,0.0,89,0.10,CLR,,1.28,WeatherDisplay:10.37,2013-05-08 00:01:00,
2013-05-07 20:06:00,53.1,49.9,29.94,SW,225,0.0,0.0,89,0.10,RA,,1.30,WeatherDisplay:10.37,2013-05-08 00:06:00,
2013-05-07 20:11:00,52.9,49.7,29.95,SW,225,0.0,0.0,89,0.10,RA,,1.30,WeatherDisplay:10.37,2013-05-08 00:11:00,
2013-05-07 20:16:00,52.9,49.7,29.95,SW,225,0.0,0.0,89,0.10,RA,,1.32,WeatherDisplay:10.37,2013-05-08 00:16:00,
2013-05-07 20:21:00,52.9,49.7,29.96,SW,225,0.0,0.0,89,0.10,RA,,1.32,WeatherDisplay:10.37,2013-05-08 00:21:00,
2013-05-07 20:26:00,52.9,49.7,29.95,SW,225,0.0,0.0,89,0.08,,,1.32,WeatherDisplay:10.37,2013-05-08 00:26:00,
2013-05-07 20:31:00,52.9,49.7,29.95,SW,225,0.0,0.0,89,0.08,CLR,,1.32,WeatherDisplay:10.37,2013-05-08 00:31:00,
2013-05-07 20:36:00,52.7,49.5,29.95,SW,225,0.0,0.0,89,0.08,CLR,,1.32,WeatherDisplay:10.37,2013-05-08 00:36:00,
2013-05-07 20:41:00,52.7,49.5,29.95,SW,225,0.0,0.0,89,0.06,CLR,,1.32,WeatherDisplay:10.37,2013-05-08 00:41:00,
2013-05-07 20:46:00,52.7,49.5,29.98,SW,225,0.0,0.0,89,0.06,CLR,,1.32,WeatherDisplay:10.37,2013-05-08 00:46:00,
2013-05-07 20:51:00,52.7,49.5,29.97,SW,225,0.0,0.0,89,0.04,CLR,,1.32,WeatherDisplay:10.37,2013-05-08 00:51:00,
2013-05-07 20:56:00,52.5,49.4,29.98,SW,225,0.0,0.0,89,0.04,CLR,,1.32,WeatherDisplay:10.37,2013-05-08 00:56:00,
2013-05-07 21:01:00,52.5,49.4,29.98,SW,225,0.0,0.0,89,0.06,RA,,1.34,WeatherDisplay:10.37,2013-05-08 01:01:00,
2013-05-07 21:06:00,52.5,49.4,29.97,SSE,158,0.0,0.0,89,0.06,RA,,1.36,WeatherDisplay:10.37,2013-05-08 01:06:00,
2013-05-07 21:11:00,52.3,49.2,29.97,SSE,158,0.0,0.0,89,0.06,RA,,1.36,WeatherDisplay:10.37,2013-05-08 01:11:00,
2013-05-07 21:16:00,52.3,49.2,29.97,SSE,158,0.0,0.0,89,0.06,RA,,1.38,WeatherDisplay:10.37,2013-05-08 01:16:00,
2013-05-07 21:21:00,52.3,49.2,29.97,SSE,158,0.0,0.0,89,0.06,RA,,1.38,WeatherDisplay:10.37,2013-05-08 01:21:00,
2013-05-07 21:26:00,52.3,49.2,29.97,SSE,158,0.0,0.0,89,0.08,RA,,1.40,WeatherDisplay:10.37,2013-05-08 01:26:00,
2013-05-07 21:31:00,52.3,49.2,29.96,SSE,158,0.0,0.0,89,0.10,RA,,1.42,WeatherDisplay:10.37,2013-05-08 01:31:00,
2013-05-07 21:36:00,52.3,49.2,29.97,SSE,158,0.0,0.0,89,0.10,RA,,1.42,WeatherDisplay:10.37,2013-05-08 01:36:00,
2013-05-07 21:41:00,52.3,49.2,29.97,SSE,158,0.0,0.0,89,0.10,,,1.42,WeatherDisplay:10.37,2013-05-08 01:41:00,
2013-05-07 21:46:00,52.2,49.0,29.96,SSE,158,0.0,0.0,89,0.10,CLR,,1.42,WeatherDisplay:10.37,2013-05-08 01:46:00,
2013-05-07 21:51:00,52.2,49.0,29.96,SSE,158,0.0,0.0,89,0.10,CLR,,1.42,WeatherDisplay:10.37,2013-05-08 01:51:00,
2013-05-07 21:56:00,52.2,49.0,29.96,SSE,158,0.0,0.0,89,0.10,CLR,,1.42,WeatherDisplay:10.37,2013-05-08 01:56:00,
2013-05-07 22:01:00,52.2,49.0,29.97,SSE,158,0.0,0.0,89,0.08,CLR,,1.42,WeatherDisplay:10.37,2013-05-08 02:01:00,
2013-05-07 22:06:00,52.2,49.0,29.96,SSE,158,0.0,0.0,89,0.06,CLR,,1.42,WeatherDisplay:10.37,2013-05-08 02:06:00,
2013-05-07 22:11:00,52.0,48.8,29.95,SSE,158,0.0,0.0,89,0.06,CLR,,1.42,WeatherDisplay:10.37,2013-05-08 02:11:00,
2013-05-07 22:16:00,52.0,48.8,29.95,SSE,158,0.0,0.0,89,0.06,RA,,1.44,WeatherDisplay:10.37,2013-05-08 02:16:00,
2013-05-07 22:21:00,52.0,48.8,29.95,SSE,158,0.0,0.0,89,0.06,RA,,1.44,WeatherDisplay:10.37,2013-05-08 02:21:00,
2013-05-07 22:26:00,52.0,48.8,29.96,SSE,158,0.0,0.0,89,0.04,CLR,,1.44,WeatherDisplay:10.37,2013-05-08 02:26:00,
2013-05-07 22:31:00,52.0,48.8,29.96,SSE,158,0.0,0.0,89,0.02,CLR,,1.44,WeatherDisplay:10.37,2013-05-08 02:31:00,
2013-05-07 22:36:00,52.0,48.8,29.96,SSE,158,0.0,0.0,89,0.02,CLR,,1.44,WeatherDisplay:10.37,2013-05-08 02:36:00,
2013-05-07 22:41:00,52.0,48.8,29.97,SSE,158,0.0,0.0,89,0.02,CLR,,1.44,WeatherDisplay:10.37,2013-05-08 02:41:00,
2013-05-07 22:46:00,52.0,48.8,29.97,SSE,158,0.0,0.0,89,0.02,CLR,,1.44,WeatherDisplay:10.37,2013-05-08 02:46:00,
2013-05-07 22:51:00,52.0,48.8,29.97,NE,45,0.0,0.0,89,0.02,CLR,,1.44,WeatherDisplay:10.37,2013-05-08 02:51:00,
2013-05-07 22:56:00,52.0,48.8,29.97,ENE,68,1.1,1.1,89,0.02,CLR,,1.44,WeatherDisplay:10.37,2013-05-08 02:56:00,
2013-05-07 23:01:00,52.0,48.8,29.97,ENE,68,0.0,0.0,89,0.02,CLR,,1.44,WeatherDisplay:10.37,2013-05-08 03:01:00,
2013-05-07 23:06:00,52.0,49.1,29.96,NE,45,0.0,0.0,90,0.02,CLR,,1.44,WeatherDisplay:10.37,2013-05-08 03:06:00,
2013-05-07 23:11:00,52.0,49.1,29.96,East,90,0.0,0.0,90,0.04,RA,,1.46,WeatherDisplay:10.37,2013-05-08 03:11:00,
2013-05-07 23:16:00,52.0,49.1,29.96,East,90,0.0,0.0,90,0.02,RA,,1.46,WeatherDisplay:10.37,2013-05-08 03:16:00,
2013-05-07 23:21:00,52.0,49.1,29.97,East,90,0.0,0.0,90,0.02,CLR,,1.46,WeatherDisplay:10.37,2013-05-08 03:21:00,
2013-05-07 23:26:00,52.0,49.1,29.97,East,90,0.0,0.0,90,0.04,RA,,1.48,WeatherDisplay:10.37,2013-05-08 03:26:00,
2013-05-07 23:31:00,52.0,49.1,29.97,East,90,0.0,0.0,90,0.06,RA,,1.50,WeatherDisplay:10.37,2013-05-08 03:31:00,
2013-05-07 23:36:00,52.0,49.1,29.97,East,90,0.0,0.0,90,0.06,RA,,1.50,WeatherDisplay:10.37,2013-05-08 03:36:00,
2013-05-07 23:41:00,52.0,49.1,29.96,East,90,0.0,0.0,90,0.08,RA,,1.52,WeatherDisplay:10.37,2013-05-08 03:41:00,
2013-05-07 23:46:00,52.0,49.1,29.96,East,90,0.0,0.0,90,0.08,RA,,1.52,WeatherDisplay:10.37,2013-05-08 03:46:00,
2013-05-07 23:51:00,52.0,49.1,29.95,East,90,0.0,0.0,90,0.08,,,1.52,WeatherDisplay:10.37,2013-05-08 03:51:00,
2013-05-07 23:56:00,52.0,49.1,29.95,East,90,0.0,0.0,90,0.08,CLR,,1.52,WeatherDisplay:10.37,2013-05-08 03:56:00,